Location: El Gandul
(32.4984°N, 116.7135°W)
Time: 15:35:03
(UTC+00:00)

ARGOS - Pass Details

Date: 03 August 2024
Orbit: 818 x 834 km, 98.4° (Epoch: 09 September)

Event Time Altitude Azimuth Distance (km) Brightness Sun altitude
Rises 12:32:25 0° 13° (NNE) 3,371 6.9 -6.8°
Reaches altitude 10° 12:34:47 10° 13° (NNE) 2,432 6.2 -6.3°
Maximum altitude 12:40:11 86° 104° (ESE) 829 3.3 -5.3°
Drops below altitude 10° 12:45:32 10° 192° (SSW) 2,408 5.2 -4.3°
Sets 12:47:52 0° 193° (SSW) 3,335 5.9 -3.8°
